Вернуться в каталог

LEMUR-2-STARLIGHT

АктивенНаукаSSO
NORAD 66783·PAYLOAD·🇺🇸 United States

Запущен Nov 28, 2025 с Vandenberg Space Force Base

Loading…

Ближайшие Пролёты (ближайшие 24 часа)

TLE

СвежийSource: Space-Track

Эпоха: Sep 13, 2026, 17:20 UTC

1 66783U 25276DX  26256.72278403  .00003812  00000-0  31165-3 0  9999
2 66783  97.5145 324.3485 0016374 187.4284 172.6700 14.99830919 43460

Отслеживайте LEMUR-2-STARLIGHT в реальном времени с AllMySat

Download on the App Store